When you browse on this site, cookies collect data to enhance your experience and personalize the content and advertising you see.
Visit our Privacy Policy to learn more. By continuing to use the site, you agree to this use of cookies and data.

Meteo pe oră la Aliağa

Astăzi, 12 August, Miercuri

Timp Temperatura Precipitaţii Vânt Presiune Umiditate
00:00 +25°C° 0 mm 3 m/s 753 mmHg 53%
01:00 +24°C° 0 mm 3 m/s 753 mmHg 55%
02:00 +24°C° 0 mm 3 m/s 753 mmHg 57%
03:00 +22°C° 0 mm 3 m/s 753 mmHg 59%
04:00 +22°C° 0 mm 3 m/s 753 mmHg 62%
05:00 +21°C° 0 mm 3 m/s 753 mmHg 64%
06:00 +23°C° 0 mm 4 m/s 753 mmHg 57%
07:00 +26°C° 0 mm 4 m/s 753 mmHg 49%
08:00 +29°C° 0 mm 4 m/s 753 mmHg 42%
09:00 +32°C° 0 mm 5 m/s 753 mmHg 36%
10:00 +34°C° 0 mm 5 m/s 753 mmHg 30%
11:00 +38°C° 0 mm 6 m/s 753 mmHg 24%
12:00 +39°C° 0 mm 6 m/s 753 mmHg 22%
13:00 +40°C° 0 mm 6 m/s 753 mmHg 19%
14:00 +41°C° 0 mm 6 m/s 752 mmHg 17%
15:00 +40°C° 0 mm 7 m/s 752 mmHg 18%
16:00 +40°C° 0 mm 8 m/s 752 mmHg 19%
17:00 +39°C° 0 mm 8 m/s 752 mmHg 20%
18:00 +35°C° 0 mm 7 m/s 752 mmHg 26%
19:00 +33°C° 0 mm 6 m/s 752 mmHg 32%
20:00 +29°C° 0 mm 5 m/s 753 mmHg 38%
21:00 +28°C° 0 mm 5 m/s 753 mmHg 41%
22:00 +27°C° 0 mm 4 m/s 753 mmHg 45%
23:00 +25°C° 0 mm 3 m/s 753 mmHg 48%

Mâine, 13 August, Joi

Timp Temperatura Precipitaţii Vânt Presiune Umiditate
00:00 +25°C° 0 mm 3 m/s 753 mmHg 48%
01:00 +25°C° 0 mm 3 m/s 753 mmHg 49%
02:00 +24°C° 0 mm 3 m/s 753 mmHg 49%
03:00 +24°C° 0 mm 3 m/s 753 mmHg 49%
04:00 +22°C° 0 mm 3 m/s 753 mmHg 49%
05:00 +22°C° 0 mm 3 m/s 753 mmHg 49%
06:00 +25°C° 0 mm 4 m/s 753 mmHg 44%
07:00 +28°C° 0 mm 5 m/s 753 mmHg 40%
08:00 +30°C° 0 mm 5 m/s 753 mmHg 35%
09:00 +33°C° 0 mm 6 m/s 754 mmHg 31%
10:00 +35°C° 0 mm 7 m/s 754 mmHg 26%
11:00 +38°C° 0 mm 7 m/s 754 mmHg 22%
12:00 +39°C° 0 mm 7 m/s 753 mmHg 21%
13:00 +39°C° 0 mm 8 m/s 753 mmHg 20%
14:00 +40°C° 0 mm 8 m/s 753 mmHg 19%
15:00 +39°C° 0 mm 8 m/s 752 mmHg 22%
16:00 +38°C° 0 mm 8 m/s 752 mmHg 24%
17:00 +38°C° 0 mm 9 m/s 752 mmHg 26%
18:00 +34°C° 0 mm 8 m/s 752 mmHg 32%
19:00 +32°C° 0 mm 7 m/s 753 mmHg 38%
20:00 +28°C° 0 mm 6 m/s 753 mmHg 45%
21:00 +27°C° 0 mm 6 m/s 753 mmHg 49%
22:00 +26°C° 0 mm 5 m/s 753 mmHg 54%
23:00 +25°C° 0 mm 5 m/s 753 mmHg 59%

Poimâine, 14 August, Vineri

Timp Temperatura Precipitaţii Vânt Presiune Umiditate
00:00 +23°C° 0 mm 4 m/s 753 mmHg 62%
01:00 +23°C° 0 mm 4 m/s 753 mmHg 66%
02:00 +22°C° 0 mm 4 m/s 753 mmHg 70%
03:00 +22°C° 0 mm 4 m/s 753 mmHg 73%
04:00 +21°C° 0 mm 4 m/s 753 mmHg 76%
05:00 +21°C° 0 mm 5 m/s 753 mmHg 79%
06:00 +23°C° 0 mm 5 m/s 753 mmHg 70%
07:00 +26°C° 0 mm 5 m/s 753 mmHg 61%
08:00 +28°C° 0 mm 6 m/s 753 mmHg 52%
09:00 +30°C° 0 mm 6 m/s 753 mmHg 43%
10:00 +33°C° 0 mm 6 m/s 753 mmHg 35%
11:00 +35°C° 0 mm 7 m/s 753 mmHg 26%
12:00 +36°C° 0 mm 7 m/s 752 mmHg 24%
13:00 +38°C° 0 mm 7 m/s 752 mmHg 21%
14:00 +39°C° 0 mm 8 m/s 752 mmHg 18%
15:00 +38°C° 0 mm 8 m/s 751 mmHg 18%
16:00 +38°C° 0 mm 8 m/s 751 mmHg 18%
17:00 +37°C° 0 mm 8 m/s 751 mmHg 18%
18:00 +33°C° 0 mm 7 m/s 751 mmHg 23%
19:00 +29°C° 0 mm 6 m/s 752 mmHg 29%
20:00 +26°C° 0 mm 6 m/s 752 mmHg 35%
21:00 +25°C° 0 mm 5 m/s 752 mmHg 43%
22:00 +22°C° 0 mm 5 m/s 752 mmHg 51%
23:00 +21°C° 0 mm 4 m/s 752 mmHg 59%

15 August, Sâmbătă

Timp Temperatura Precipitaţii Vânt Presiune Umiditate
00:00 +20°C° 0 mm 4 m/s 752 mmHg 62%
01:00 +20°C° 0 mm 4 m/s 752 mmHg 64%
02:00 +19°C° 0 mm 4 m/s 752 mmHg 67%
03:00 +19°C° 0 mm 4 m/s 752 mmHg 68%
04:00 +18°C° 0 mm 4 m/s 751 mmHg 70%
05:00 +18°C° 0 mm 4 m/s 751 mmHg 71%
06:00 +20°C° 0 mm 4 m/s 751 mmHg 62%
07:00 +23°C° 0 mm 5 m/s 751 mmHg 54%
08:00 +26°C° 0 mm 6 m/s 752 mmHg 45%
09:00 +28°C° 0 mm 6 m/s 752 mmHg 37%
10:00 +32°C° 0 mm 6 m/s 752 mmHg 30%
11:00 +35°C° 0 mm 6 m/s 752 mmHg 22%
12:00 +36°C° 0 mm 6 m/s 751 mmHg 20%
13:00 +38°C° 0 mm 6 m/s 751 mmHg 17%
14:00 +39°C° 0 mm 7 m/s 751 mmHg 15%
15:00 +39°C° 0 mm 7 m/s 750 mmHg 17%
16:00 +38°C° 0 mm 7 m/s 750 mmHg 20%
17:00 +37°C° 0 mm 8 m/s 749 mmHg 22%
18:00 +33°C° 0 mm 7 m/s 750 mmHg 31%
19:00 +29°C° 0 mm 6 m/s 750 mmHg 40%
20:00 +26°C° 0 mm 5 m/s 750 mmHg 48%
21:00 +25°C° 0 mm 5 m/s 750 mmHg 54%
22:00 +23°C° 0 mm 5 m/s 750 mmHg 60%
23:00 +21°C° 0 mm 4 m/s 750 mmHg 65%

16 August, Duminică

Timp Temperatura Precipitaţii Vânt Presiune Umiditate
00:00 +21°C° 0 mm 4 m/s 750 mmHg 68%
01:00 +20°C° 0 mm 4 m/s 750 mmHg 71%
02:00 +20°C° 0 mm 4 m/s 750 mmHg 73%
03:00 +19°C° 0 mm 4 m/s 750 mmHg 76%
04:00 +19°C° 0 mm 4 m/s 750 mmHg 78%
05:00 +18°C° 0 mm 4 m/s 750 mmHg 80%
06:00 +20°C° 0 mm 5 m/s 750 mmHg 71%
07:00 +22°C° 0 mm 5 m/s 750 mmHg 62%
08:00 +25°C° 0 mm 5 m/s 750 mmHg 53%
09:00 +28°C° 0 mm 5 m/s 750 mmHg 45%
10:00 +32°C° 0 mm 6 m/s 751 mmHg 36%
11:00 +34°C° 0 mm 6 m/s 751 mmHg 28%
12:00 +35°C° 0 mm 7 m/s 751 mmHg 26%
13:00 +36°C° 0 mm 7 m/s 750 mmHg 25%
14:00 +38°C° 0 mm 8 m/s 750 mmHg 23%
15:00 +37°C° 0 mm 8 m/s 750 mmHg 25%
16:00 +35°C° 0 mm 8 m/s 750 mmHg 28%
17:00 +34°C° 0 mm 9 m/s 750 mmHg 30%
18:00 +31°C° 0 mm 8 m/s 750 mmHg 37%
19:00 +27°C° 0 mm 7 m/s 750 mmHg 44%
20:00 +24°C° 0 mm 7 m/s 751 mmHg 51%
21:00 +23°C° 0 mm 6 m/s 751 mmHg 57%
22:00 +22°C° 0 mm 6 m/s 751 mmHg 63%
23:00 +21°C° 0 mm 6 m/s 751 mmHg 69%

17 August, Luni

Timp Temperatura Precipitaţii Vânt Presiune Umiditate
00:00 +20°C° 0 mm 6 m/s 751 mmHg 72%
01:00 +20°C° 0 mm 6 m/s 751 mmHg 76%
02:00 +19°C° 0 mm 6 m/s 751 mmHg 79%
03:00 +19°C° 0 mm 6 m/s 751 mmHg 80%
04:00 +19°C° 0 mm 6 m/s 752 mmHg 80%
05:00 +19°C° 0 mm 6 m/s 752 mmHg 81%
06:00 +20°C° 0 mm 6 m/s 752 mmHg 73%
07:00 +22°C° 0 mm 7 m/s 752 mmHg 64%
08:00 +24°C° 0 mm 7 m/s 752 mmHg 55%
09:00 +27°C° 0 mm 8 m/s 752 mmHg 47%
10:00 +29°C° 0 mm 8 m/s 752 mmHg 39%
11:00 +33°C° 0 mm 8 m/s 752 mmHg 30%
12:00 +34°C° 0 mm 8 m/s 752 mmHg 28%
13:00 +35°C° 0 mm 9 m/s 752 mmHg 26%
14:00 +37°C° 0 mm 9 m/s 751 mmHg 24%
15:00 +35°C° 0 mm 9 m/s 751 mmHg 26%
16:00 +34°C° 0 mm 10 m/s 751 mmHg 27%
17:00 +33°C° 0 mm 10 m/s 751 mmHg 28%
18:00 +29°C° 0 mm 9 m/s 752 mmHg 36%
19:00 +27°C° 0 mm 8 m/s 752 mmHg 43%
20:00 +23°C° 0 mm 7 m/s 752 mmHg 50%
21:00 +22°C° 0 mm 6 m/s 753 mmHg 55%
22:00 +21°C° 0 mm 6 m/s 753 mmHg 60%
23:00 +20°C° 0 mm 6 m/s 753 mmHg 65%
Arată mai mult